Location: Ch�teau-Arnoux
(44.0814°N, 6.0027°E)
Time: 04:41:05
(UTC+00:00)

ALOS - Pass Details

Date: 15 November 2019
Orbit: 683 x 685 km, 97.8° (Epoch: 13 December)

Event Time Altitude Azimuth Distance (km) Brightness Sun altitude
Rises 05:21:58 0° 9° (N) 3,058 5.6 -12.4°
Reaches altitude 10° 05:24:14 10° 7° (N) 2,138 4.7 -12.0°
Maximum altitude 05:28:51 64° 286° (WNW) 760 2.2 -11.2°
Drops below altitude 10° 05:33:27 10° 206° (SSW) 2,122 4.7 -10.4°
Sets 05:35:41 0° 203° (SSW) 3,034 5.5 -10.1°
